Location: Cahas Mountain Overlook
(37.0833°N, 80.1000°W)
Time: 16:06:59
(UTC-05:00)

Envisat - Visible Passes

Search period start: 01 December 2021 00:00
Search period end: 11 December 2021 00:00
Orbit: 764 x 766 km, 98.2° (Epoch: 01 December)

Date Brightness Start Highest point End Pass type
(mag) Time Alt. Az. Time Alt. Az. Time Alt. Az.
01 Dec 5.7 04:10:40 10° NE 04:13:50 17° E 04:17:00 10° SE visible
01 Dec 3.1 05:48:12 10° N 05:53:06 50° WNW 05:57:58 10° SSW visible
02 Dec 3.2 05:11:15 10° NNE 05:16:19 70° ESE 05:21:22 10° S visible
02 Dec 6.4 18:06:40 10° WSW 18:07:54 11° W 18:09:09 10° WNW visible
03 Dec 4.8 04:34:55 10° NE 04:39:21 30° E 04:43:44 10° SSE visible
03 Dec 3.8 06:13:56 10° N 06:18:14 28° WNW 06:22:31 10° SW visible
03 Dec 5.5 17:26:30 10° SSW 17:30:42 26° W 17:34:57 10° NW visible
04 Dec 6.0 04:00:03 10° ENE 04:02:10 12° E 04:04:17 10° ESE visible
04 Dec 2.9 05:36:33 10° N 05:41:35 65° WNW 05:46:35 10° SSW visible
05 Dec 3.7 04:59:46 10° NNE 05:04:44 54° E 05:09:41 10° S visible
05 Dec 4.4 06:40:10 10° NNW 06:43:16 17° WNW 06:46:23 10° WSW visible
05 Dec 6.0 17:53:29 10° SW 17:56:14 15° W 17:58:59 10° WNW visible
06 Dec 5.2 04:23:42 10° NE 04:27:43 23° E 04:31:41 10° SSE visible
06 Dec 3.5 06:02:09 10° N 06:06:46 36° WNW 06:11:21 10° SW visible
07 Dec 2.8 05:24:57 10° N 05:30:03 84° WNW 05:35:07 10° SSW visible
08 Dec 4.2 04:48:21 10° NNE 04:53:10 41° E 04:57:55 10° SSE visible
08 Dec 4.1 06:28:07 10° NNW 06:31:50 21° WNW 06:35:34 10° WSW visible
08 Dec 5.9 17:41:01 10° SW 17:44:34 19° W 17:48:07 10° NW visible
09 Dec 5.5 04:12:39 10° NE 04:16:04 18° E 04:19:27 10° SE visible
09 Dec 3.2 05:50:26 10° N 05:55:16 46° WNW 06:00:06 10° SW visible
10 Dec 3.1 05:13:25 10° NNE 05:18:30 76° E 05:23:33 10° S visible
